F6JSP-13 Weather Reports


time (UTC)temp
F
wind
direction
speed
knots
gust
knots
rain 1hr
in
rain 24hr
in
rain mn
in
humidity
%
barometer
mb
20260510043504 57 59 2.6 6.1 0.00 0.00 0.00 90 1006.3
20260510043005 57 58 1.7 5.2 0.00 0.00 0.00 90 1006.1
20260510042505 58 66 2.6 6.1 0.00 0.00 0.00 90 1006.2
20260510042005 58 76 2.6 7.0 0.00 0.00 0.00 89 1006.3
20260510041504 58 63 1.7 7.0 0.00 0.00 0.00 89 1006.2
20260510040505 58 61 2.6 7.0 0.00 0.00 0.00 89 1006.4
20260510035504 58 59 2.6 7.8 0.00 0.00 0.00 89 1006.2
20260510035005 58 66 2.6 7.8 0.00 0.00 0.00 89 1006.5
20260510034504 58 56 3.5 7.8 0.00 0.00 0.00 89 1006.2
20260510034004 58 65 2.6 7.8 0.00 0.00 0.00 89 1006.5
20260510033504 58 51 1.7 5.2 0.00 0.00 0.00 89 1006.4
20260510033005 58 65 0.9 4.3 0.00 0.00 0.00 89 1006.5
20260510032504 58 16 0.9 4.3 0.00 0.00 0.00 89 1006.6
20260510032005 58 29 0.9 5.2 0.00 0.00 0.00 88 1006.5
20260510031504 58 31 0.0 2.6 0.00 0.00 0.00 88 1006.7
20260510031004 58 6 0.9 2.6 0.00 0.00 0.00 88 1006.6
20260510030504 58 44 0.9 4.3 0.00 0.00 0.00 87 1006.7
20260510025504 58 8 2.6 7.0 0.00 0.00 0.00 87 1006.7
20260510025005 58 357 1.7 7.0 0.00 0.00 0.00 87 1006.7
20260510024504 58 10 0.9 5.2 0.00 0.00 0.00 87 1006.8
20260510024005 58 11 1.7 7.8 0.00 0.00 0.00 88 1007.1
20260510023505 58 7 4.3 7.8 0.00 0.00 0.00 88 1007.0
20260510023005 58 5 1.7 6.1 0.00 0.00 0.00 88 1006.7
20260510022504 58 9 1.7 4.3 0.00 0.00 0.00 88 1006.8
20260510022004 58 13 1.7 4.3 0.00 0.00 0.00 88 1006.9
20260510021504 58 35 2.6 5.2 0.00 0.00 0.00 88 1007.0
20260510021005 59 37 2.6 7.8 0.00 0.00 0.00 89 1007.2
20260510020504 59 339 3.5 7.8 0.00 0.00 0.00 89 1007.0
20260510020005 58 9 1.7 6.1 0.00 0.00 0.00 90 1007.0
20260510015504 59 36 0.9 4.3 0.00 0.00 0.00 90 1007.2
20260510015005 59 55 0.9 6.1 0.00 0.00 0.00 90 1007.3
20260510014505 58 50 3.5 7.0 0.00 0.00 0.00 91 1007.3
20260510014005 58 77 2.6 5.2 0.00 0.00 0.00 91 1007.1
20260510013504 58 67 2.6 7.8 0.00 0.00 0.00 90 1007.2
20260510013005 59 10 4.3 10.4 0.00 0.00 0.00 90 1007.1
20260510012005 59 2 5.2 10.4 0.00 0.00 0.00 90 1006.9
20260510011505 59 9 4.3 7.8 0.00 0.00 0.00 90 1007.2
20260510011005 59 4 4.3 8.7 0.00 0.00 0.00 89 1007.2
20260510010504 59 3 2.6 7.8 0.00 0.00 0.00 89 1007.3
20260510010005 59 4 2.6 7.8 0.00 0.00 0.00 89 1007.3
20260510005504 59 15 2.6 7.0 0.00 0.00 0.00 88 1007.2
20260510005004 59 10 4.3 8.7 0.00 0.00 0.00 88 1007.1
20260510004505 59 14 4.3 8.7 0.00 0.00 0.00 87 1007.2
20260510004004 59 7 4.3 10.4 0.00 0.00 0.00 87 1007.2
20260510003504 59 11 4.3 7.8 0.00 0.00 0.00 87 1007.2
20260510003005 59 7 4.3 7.8 0.00 0.00 0.00 86 1007.3
20260510002505 59 7 2.6 7.0 0.00 0.00 0.00 86 1007.2
20260510002005 59 10 4.3 7.8 0.00 0.00 0.00 86 1007.4
20260510001005 59 6 4.3 7.0 0.00 0.00 0.00 85 1007.7
20260510000505 59 3 4.3 7.8 0.00 0.00 0.00 84 1007.6
20260510000005 59 8 2.6 7.0 0.00 0.00 0.00 84 1007.5
20260509235504 60 14 3.5 8.7 0.00 0.00 0.00 83 1007.6
20260509235005 60 7 5.2 8.7 0.00 0.00 0.00 83 1008.0
20260509234504 60 358 3.5 7.0 0.00 0.00 0.00 83 1007.8
20260509234005 60 1 2.6 6.1 0.00 0.00 0.00 82 1007.8
20260509233005 60 15 3.5 7.8 0.00 0.00 0.00 82 1008.1
20260509232506 60 10 3.5 7.0 0.00 0.00 0.00 82 1007.9
20260509231505 60 14 3.5 7.8 0.00 0.00 0.00 81 1008.2
20260509231005 60 5 6.1 10.4 0.00 0.00 0.00 80 1008.0
20260509230504 60 354 4.3 10.4 0.00 0.00 0.00 80 1008.4
20260509230004 60 357 5.2 11.3 0.00 0.00 0.00 80 1008.3
20260509225505 61 357 6.1 12.2 0.00 0.00 0.00 80 1008.1
20260509225005 61 1 6.1 13.0 0.00 0.00 0.00 79 1008.3
20260509224504 61 349 5.2 13.0 0.00 0.00 0.00 79 1007.9
20260509224004 61 3 6.1 10.4 0.00 0.00 0.00 79 1008.3
20260509223504 61 350 5.2 13.0 0.00 0.00 0.00 79 1008.1
20260509223004 61 351 5.2 12.2 0.00 0.00 0.00 79 1008.4
20260509222504 61 358 6.1 13.0 0.00 0.00 0.00 79 1008.3
20260509222005 61 357 6.1 13.0 0.00 0.00 0.00 80 1008.2
20260509221505 61 3 4.3 13.0 0.00 0.00 0.00 80 1008.3
20260509221004 61 0 5.2 11.3 0.00 0.00 0.00 80 1008.2
20260509220504 61 357 4.3 10.4 0.00 0.00 0.00 80 1008.1
20260509220004 61 341 5.2 11.3 0.00 0.00 0.00 81 1008.5
20260509215005 62 350 4.3 11.3 0.00 0.00 0.00 81 1008.2
20260509214504 62 344 3.5 7.0 0.00 0.00 0.00 82 1008.3
20260509214004 62 350 4.3 11.3 0.00 0.00 0.00 82 1008.1
20260509213504 62 352 4.3 8.7 0.00 0.00 0.00 82 1008.3
20260509213005 62 336 2.6 6.1 0.00 0.00 0.00 83 1008.3
20260509212504 62 358 1.7 5.2 0.00 0.00 0.00 84 1008.2
20260509212004 62 335 2.6 6.1 0.00 0.00 0.00 83 1008.3
20260509211504 62 332 4.3 6.1 0.00 0.00 0.00 83 1008.1
20260509210504 62 324 2.6 7.0 0.00 0.00 0.00 82 1008.0
20260509210004 63 338 3.5 7.8 0.00 0.00 0.00 82 1008.2
20260509205504 63 340 2.6 7.0 0.00 0.00 0.00 81 1008.2
20260509204505 63 325 1.7 7.0 0.00 0.00 0.00 80 1008.4
20260509203504 63 340 1.7 6.1 0.00 0.00 0.00 80 1008.3
20260509203004 63 350 1.7 5.2 0.00 0.00 0.00 80 1008.1
20260509202504 64 325 2.6 7.8 0.00 0.00 0.00 79 1008.2
20260509202005 64 328 3.5 7.8 0.00 0.00 0.00 78 1008.4
20260509201505 64 357 3.5 6.1 0.00 0.00 0.00 79 1008.1
20260509201006 64 316 1.7 4.3 0.00 0.00 0.00 79 1008.2
20260509200506 64 337 1.7 2.6 0.00 0.00 0.00 77 1007.9
20260509200006 64 340 0.9 2.6 0.00 0.00 0.00 77 1008.2
20260509195506 64 337 1.7 2.6 0.00 0.00 0.00 76 1007.9
20260509195007 64 338 0.9 4.3 0.00 0.00 0.00 76 1007.7
20260509194505 65 332 1.7 4.3 0.00 0.00 0.00 75 1007.7
20260509194007 65 338 0.9 2.6 0.00 0.00 0.00 75 1007.7
20260509193506 66 330 0.9 2.6 0.00 0.00 0.00 74 1007.4
20260509193006 67 352 0.9 2.6 0.00 0.00 0.00 73 1007.5
20260509192507 67 8 2.6 2.6 0.00 0.00 0.00 71 1007.4
20260509191505 69 54 0.9 2.6 0.00 0.00 0.00 66 1007.3
20260509191006 69 75 1.7 2.6 0.00 0.00 0.00 65 1007.1
20260509190506 70 72 1.7 1.7 0.00 0.00 0.00 63 1007.3
20260509185506 71 95 1.7 2.6 0.00 0.00 0.00 57 1007.2
20260509185006 71 101 2.6 4.3 0.00 0.00 0.00 57 1007.2
20260509184506 71 105 1.7 4.3 0.00 0.00 0.00 57 1007.3
20260509183506 72 86 2.6 5.2 0.00 0.00 0.00 58 1007.2
20260509183006 71 87 2.6 4.3 0.00 0.00 0.00 59 1007.4
20260509182505 72 88 2.6 4.3 0.00 0.00 0.00 58 1007.1
20260509182006 72 88 1.7 2.6 0.00 0.00 0.00 57 1006.9
20260509180506 73 109 1.7 5.2 0.00 0.00 0.00 56 1006.8
20260509180005 73 99 3.5 6.1 0.00 0.00 0.00 55 1007.2
20260509175505 73 87 4.3 8.7 0.00 0.00 0.00 54 1007.1
20260509175006 73 85 4.3 7.0 0.00 0.00 0.00 54 1007.0
20260509174505 73 88 4.3 8.7 0.00 0.00 0.00 54 1007.1
20260509174006 73 84 5.2 8.7 0.00 0.00 0.00 53 1007.0
20260509173506 73 84 5.2 7.0 0.00 0.00 0.00 53 1006.9
20260509173006 74 83 3.5 6.1 0.00 0.00 0.00 54 1007.1
20260509172506 74 90 2.6 6.1 0.00 0.00 0.00 52 1007.0
20260509172006 74 102 4.3 7.0 0.00 0.00 0.00 51 1007.1
20260509171006 74 91 4.3 7.0 0.00 0.00 0.00 51 1007.1
20260509170505 74 101 4.3 7.0 0.00 0.00 0.00 51 1006.8
20260509170005 74 95 2.6 6.1 0.00 0.00 0.00 54 1007.1
20260509165005 74 70 2.6 7.8 0.00 0.00 0.00 54 1006.9
20260509164506 74 72 4.3 8.7 0.00 0.00 0.00 53 1007.1
20260509164006 75 57 4.3 12.2 0.00 0.00 0.00 52 1007.2
20260509163505 75 71 7.8 12.2 0.00 0.00 0.00 51 1007.1
20260509163006 75 75 5.2 10.4 0.00 0.00 0.00 51 1007.0
20260509162505 75 107 4.3 7.0 0.00 0.00 0.00 48 1007.3
20260509162006 76 116 3.5 7.8 0.00 0.00 0.00 47 1007.3
20260509161505 76 83 4.3 6.1 0.00 0.00 0.00 49 1007.2
20260509161006 75 107 2.6 6.1 0.00 0.00 0.00 51 1007.3
20260509160505 75 119 5.2 7.8 0.00 0.00 0.00 51 1007.1
20260509160005 75 98 2.6 8.7 0.00 0.00 0.00 52 1007.3
20260509155506 75 84 6.1 8.7 0.00 0.00 0.00 50 1007.5
20260509155006 75 101 5.2 8.7 0.00 0.00 0.00 50 1007.4
20260509154506 75 101 3.5 7.8 0.00 0.00 0.00 50 1007.5
20260509154006 75 95 5.2 7.8 0.00 0.00 0.00 50 1007.2
20260509153006 75 124 7.8 11.3 0.00 0.00 0.00 49 1007.5
20260509152505 75 113 5.2 11.3 0.00 0.00 0.00 50 1007.4
20260509151506 75 125 5.2 7.8 0.00 0.00 0.00 52 1007.4
20260509151006 75 115 4.3 8.7 0.00 0.00 0.00 52 1007.4
20260509150505 74 90 7.0 10.4 0.00 0.00 0.00 53 1007.6
20260509150006 74 82 4.3 10.4 0.00 0.00 0.00 55 1007.6
20260509145506 73 51 1.7 6.1 0.00 0.00 0.00 56 1007.7
20260509145005 73 57 3.5 7.8 0.00 0.00 0.00 56 1007.7
20260509144505 73 52 1.7 7.8 0.00 0.00 0.00 57 1007.8
20260509144006 74 61 2.6 7.8 0.00 0.00 0.00 57 1007.6
20260509143506 74 53 4.3 7.8 0.00 0.00 0.00 56 1007.8
20260509143006 74 68 3.5 8.7 0.00 0.00 0.00 56 1007.8
20260509142506 75 65 2.6 10.4 0.00 0.00 0.00 53 1007.8
20260509142006 76 72 2.6 7.8 0.00 0.00 0.00 54 1008.2
20260509140506 74 30 2.6 6.1 0.00 0.00 0.00 54 1008.0
20260509140006 73 100 2.6 8.7 0.00 0.00 0.00 55 1008.4
20260509135006 74 151 4.3 7.0 0.00 0.00 0.00 54 1008.3
20260509134506 74 90 6.1 8.7 0.00 0.00 0.00 54 1008.4
20260509134006 76 84 4.3 7.8 0.00 0.00 0.00 52 1008.4
20260509133506 75 72 4.3 8.7 0.00 0.00 0.00 53 1008.4
20260509133006 73 61 2.6 7.8 0.00 0.00 0.00 56 1008.5
20260509132007 76 90 1.7 5.2 0.00 0.00 0.00 53 1008.6
20260509131506 74 74 2.6 7.8 0.00 0.00 0.00 56 1008.5
20260509130506 75 15 3.5 10.4 0.00 0.00 0.00 56 1008.4
20260509130006 74 30 2.6 8.7 0.00 0.00 0.00 56 1008.6
20260509125006 75 12 2.6 6.1 0.00 0.00 0.00 56 1008.6
20260509124506 73 63 2.6 7.0 0.00 0.00 0.00 59 1008.7
20260509124006 72 103 2.6 7.0 0.00 0.00 0.00 58 1008.7
20260509123506 72 118 4.3 8.7 0.00 0.00 0.00 58 1008.7
20260509123006 72 129 2.6 8.7 0.00 0.00 0.00 58 1008.8
20260509122506 73 19 3.5 8.7 0.00 0.00 0.00 59 1008.7
20260509122007 72 58 3.5 8.7 0.00 0.00 0.00 61 1008.7
20260509121506 73 40 2.6 7.0 0.00 0.00 0.00 60 1008.7
20260509121006 72 81 2.6 7.0 0.00 0.00 0.00 60 1008.9
20260509120506 72 17 3.5 7.8 0.00 0.00 0.00 62 1009.2
20260509120006 71 45 2.6 8.7 0.00 0.00 0.00 62 1008.9
20260509115506 71 62 4.3 8.7 0.00 0.00 0.00 61 1009.2
20260509115006 72 82 2.6 7.0 0.00 0.00 0.00 61 1009.2
20260509114506 72 67 3.5 7.0 0.00 0.00 0.00 63 1009.1
20260509114006 72 44 4.3 11.3 0.00 0.00 0.00 62 1009.3
20260509113506 72 70 4.3 8.7 0.00 0.00 0.00 61 1009.2
20260509113007 71 20 2.6 7.8 0.00 0.00 0.00 61 1009.3
20260509112006 70 80 4.3 10.4 0.00 0.00 0.00 65 1009.3
20260509111007 71 47 2.6 7.8 0.00 0.00 0.00 63 1009.5
20260509110506 70 75 5.2 10.4 0.00 0.00 0.00 63 1009.6
20260509105505 70 52 3.5 11.3 0.00 0.00 0.00 63 1009.7
20260509105007 71 71 5.2 10.4 0.00 0.00 0.00 62 1009.6
20260509104506 70 31 3.5 11.3 0.00 0.00 0.00 64 1009.8
20260509104006 69 15 4.3 11.3 0.00 0.00 0.00 64 1009.8
20260509103506 70 25 3.5 8.7 0.00 0.00 0.00 64 1009.9
20260509102506 70 85 2.6 7.0 0.00 0.00 0.00 64 1010.0
20260509102007 69 52 4.3 7.0 0.00 0.00 0.00 64 1010.1
20260509101506 69 52 4.3 11.3 0.00 0.00 0.00 64 1010.1
20260509101006 68 60 4.3 7.8 0.00 0.00 0.00 65 1010.1
20260509100506 68 57 1.7 6.1 0.00 0.00 0.00 65 1010.0
20260509100006 68 16 1.7 5.2 0.00 0.00 0.00 65 1010.1
20260509095505 68 68 3.5 7.0 0.00 0.00 0.00 65 1009.9
20260509095005 67 77 2.6 7.0 0.00 0.00 0.00 66 1009.9
20260509094505 68 76 2.6 7.0 0.00 0.00 0.00 65 1010.0
20260509094006 66 75 1.7 5.2 0.00 0.00 0.00 67 1010.2
20260509093505 65 11 2.6 6.1 0.00 0.00 0.00 69 1010.0
20260509093005 65 157 1.7 7.0 0.00 0.00 0.00 68 1010.0
20260509092505 65 139 4.3 8.7 0.00 0.00 0.00 68 1010.2
20260509092005 65 63 3.5 8.7 0.00 0.00 0.00 67 1010.3
20260509091506 66 136 2.6 5.2 0.00 0.00 0.00 66 1010.4
20260509091005 66 107 2.6 7.0 0.00 0.00 0.00 66 1010.4
20260509090506 67 114 2.6 7.0 0.00 0.00 0.00 65 1010.2
20260509085505 66 164 3.5 7.0 0.00 0.00 0.00 68 1010.3
20260509084505 64 98 5.2 7.8 0.00 0.00 0.00 68 1010.1
20260509084005 64 73 4.3 7.0 0.00 0.00 0.00 67 1010.3
20260509083006 65 154 3.5 6.1 0.00 0.00 0.00 67 1010.2
20260509082505 64 99 1.7 7.8 0.00 0.00 0.00 69 1010.6
20260509082006 63 72 5.2 7.8 0.00 0.00 0.00 69 1010.3
20260509081505 63 86 4.3 8.7 0.00 0.00 0.00 69 1010.5
20260509081005 62 97 3.5 8.7 0.00 0.00 0.00 71 1010.5
20260509080505 63 74 5.2 7.8 0.00 0.00 0.00 69 1010.4
20260509075506 64 69 2.6 6.1 0.00 0.00 0.00 68 1010.8
20260509075005 63 76 2.6 7.8 0.00 0.00 0.00 69 1010.6
20260509074505 62 68 4.3 7.0 0.00 0.00 0.00 69 1010.8
20260509074006 63 52 2.6 5.2 0.00 0.00 0.00 69 1010.8
20260509073006 62 99 4.3 7.0 0.00 0.00 0.00 70 1010.7
20260509072505 62 66 2.6 6.1 0.00 0.00 0.00 69 1010.6
20260509071505 62 35 2.6 5.2 0.00 0.00 0.00 69 1010.5
20260509071006 61 46 2.6 5.2 0.00 0.00 0.00 70 1010.5
20260509070505 63 119 1.7 4.3 0.00 0.00 0.00 66 1010.6
20260509070005 62 90 1.7 4.3 0.00 0.00 0.00 68 1010.5
20260509065505 61 0 1.7 4.3 0.00 0.00 0.00 69 1010.8
20260509065005 61 78 1.7 5.2 0.00 0.00 0.00 69 1010.6
20260509064006 60 83 1.7 5.2 0.00 0.00 0.00 70 1010.8
20260509063505 60 67 2.6 5.2 0.00 0.00 0.00 71 1010.9
20260509063005 60 74 1.7 4.3 0.00 0.00 0.00 72 1010.7
20260509062505 59 74 1.7 4.3 0.00 0.00 0.00 71 1010.9
20260509062006 61 119 0.9 2.6 0.00 0.00 0.00 69 1010.8
20260509061505 58 297 0.0 1.7 0.00 0.00 0.00 74 1010.7
20260509061005 58 192 0.0 1.7 0.00 0.00 0.00 77 1010.6
20260509060505 56 71 0.9 2.6 0.00 0.00 0.00 77 1010.6
20260509060006 56 123 0.9 5.2 0.00 0.00 0.00 80 1010.4
20260509055505 54 82 2.6 7.0 0.00 0.00 0.00 80 1010.3
20260509055006 55 88 4.3 7.0 0.00 0.00 0.00 80 1010.2
20260509054505 55 95 3.5 8.7 0.00 0.00 0.00 79 1010.3
20260509054006 55 79 5.2 8.7 0.00 0.00 0.00 79 1010.2
20260509053505 55 72 6.1 12.2 0.00 0.00 0.00 80 1010.3
20260509053006 54 70 6.1 12.2 0.00 0.00 0.00 80 1010.1
20260509052506 54 72 6.1 11.3 0.00 0.00 0.00 80 1010.3
20260509052007 54 72 6.1 11.3 0.00 0.00 0.00 80 1010.2
20260509051005 53 72 6.1 11.3 0.00 0.00 0.00 81 1010.2
20260509050505 53 72 5.2 10.4 0.00 0.00 0.00 82 1010.2
20260509050005 53 62 4.3 8.7 0.00 0.00 0.00 83 1010.0
20260509045505 52 47 2.6 7.0 0.00 0.00 0.00 83 1010.2
20260509044505 53 56 1.7 7.0 0.00 0.00 0.00 82 1010.2
20260509044005 52 64 2.6 8.7 0.00 0.00 0.00 82 1009.9